TimeMDT,TemperatureF,Dew PointF,Humidity,Sea Level PressureIn,VisibilityMPH,Wind Direction,Wind SpeedMPH,Gust SpeedMPH,PrecipitationIn,Events,Conditions,WindDirDegrees,DateUTC
12:53 AM,66.0,60.1,81,29.91,10.0,Calm,Calm,-,N/A,,Partly Cloudy,0,2013-09-07 06:53:00
1:53 AM,66.0,61.0,84,29.91,10.0,Calm,Calm,-,N/A,,Clear,0,2013-09-07 07:53:00
2:53 AM,66.0,62.1,87,29.90,10.0,Calm,Calm,-,N/A,,Clear,0,2013-09-07 08:53:00
3:53 AM,66.0,62.1,87,29.90,10.0,WNW,5.8,-,N/A,,Clear,300,2013-09-07 09:53:00
4:53 AM,66.0,60.1,81,29.92,10.0,NW,5.8,-,N/A,,Clear,310,2013-09-07 10:53:00
5:53 AM,62.1,59.0,90,29.94,10.0,Calm,Calm,-,N/A,,Clear,0,2013-09-07 11:53:00
6:53 AM,60.1,57.9,93,29.95,10.0,WSW,3.5,-,N/A,,Clear,240,2013-09-07 12:53:00
7:53 AM,68.0,59.0,73,29.97,10.0,West,4.6,-,N/A,,Clear,280,2013-09-07 13:53:00
8:53 AM,72.0,60.1,66,29.98,10.0,NNE,3.5,-,N/A,,Clear,30,2013-09-07 14:53:00
9:53 AM,75.0,61.0,62,29.98,10.0,ENE,6.9,-,N/A,,Clear,70,2013-09-07 15:53:00
10:53 AM,79.0,60.1,52,29.97,10.0,Variable,5.8,-,N/A,,Clear,0,2013-09-07 16:53:00
11:53 AM,82.0,55.9,41,29.95,10.0,South,3.5,-,N/A,,Clear,180,2013-09-07 17:53:00
12:53 PM,86.0,55.0,35,29.93,10.0,Calm,Calm,-,N/A,,Clear,0,2013-09-07 18:53:00
1:53 PM,88.0,55.9,34,29.90,10.0,Calm,Calm,-,N/A,,Clear,0,2013-09-07 19:53:00
2:53 PM,89.1,54.0,30,29.87,10.0,SW,3.5,-,N/A,,Clear,230,2013-09-07 20:53:00
3:53 PM,90.0,55.9,31,29.86,10.0,West,5.8,-,N/A,,Clear,270,2013-09-07 21:53:00
4:53 PM,90.0,55.0,30,29.85,10.0,NW,12.7,18.4,N/A,,Clear,310,2013-09-07 22:53:00
5:53 PM,89.1,52.0,28,29.85,10.0,North,6.9,-,N/A,,Clear,350,2013-09-07 23:53:00
6:53 PM,84.0,57.9,41,29.86,10.0,North,8.1,-,N/A,,Clear,350,2013-09-08 00:53:00
7:53 PM,73.0,63.0,71,29.86,10.0,Calm,Calm,-,N/A,,Clear,0,2013-09-08 01:53:00
8:53 PM,75.9,62.1,62,29.88,10.0,NNE,10.4,-,N/A,,Mostly Cloudy,20,2013-09-08 02:53:00
9:53 PM,71.1,60.1,68,29.88,10.0,NNE,5.8,-,N/A,,Partly Cloudy,20,2013-09-08 03:53:00
10:53 PM,69.1,60.1,73,29.86,10.0,North,5.8,-,N/A,,Clear,10,2013-09-08 04:53:00
11:53 PM,66.9,60.1,79,29.91,10.0,WNW,12.7,20.7,N/A,,Scattered Clouds,300,2013-09-08 05:53:00